Regional Weather Roundup
Issued by NWS

Home | Current Version | Previous Version | Text Only | Print | Product List | Glossary On
Versions: 1 2 3 4 5 6 7 8 9 10 11 12 13 14 15 16 17 18 19 20 21 22 23 24 25 26 27 28 29 30 31 32 33 34 35 36 37 38 39 40 41 42 43 44 45 46 47 48 49 50
698
ASUS44 KFWD 111810
RWRTX
NORTH TEXAS HOURLY WEATHER ROUNDUP
NATIONAL WEATHER SERVICE FORT WORTH TX
1200 PM CST THU FEB 11 2016

NOTE: "FAIR" INDICATES FEW OR NO CLOUDS BELOW 12,000 FEET WITH NO
SIGNIFICANT WEATHER AND/OR OBSTRUCTIONS TO VISIBILITY.

TXZ118-119-111900-
DALLAS/FORT WORTH METROPLEX

CITY           SKY/WX    TMP DP  RH WIND       PRES   REMARKS
DFW AIRPORT    PTSUNNY   71  28  20 NW6       30.11S
6HR MIN TEMP:  41; 6HR MAX TEMP:  71;

DALLAS LOVE    PTSUNNY   70  29  21 NW8       30.11S
6HR MIN TEMP:  46; 6HR MAX TEMP:  70;

FTW MEACHAM    SUNNY     71  31  22 NW8       30.11F
6HR MIN TEMP:  50; 6HR MAX TEMP:  71;

DAL-EXECUTIVE  SUNNY     70  31  23 NW10      30.10F
6HR MIN TEMP:  48; 6HR MAX TEMP:  70;

FTW-ALLIANCE   MOSUNNY   69  30  23 NW7       30.12S
6HR MIN TEMP:  38; 6HR MAX TEMP:  69;

FTW-NAS-JRB    MOSUNNY   72  29  20 N7        30.12S
6HR MIN TEMP:  51; 6HR MAX TEMP:  72;

FTW-SPINKS     SUNNY     73  30  20 W9        30.12F
ARLINGTON      SUNNY     73  30  20 VRB7      30.11F
6HR MIN TEMP:  37; 6HR MAX TEMP:  73;

GRAND PRAIRIE  SUNNY     72  30  21 N3        30.12F
ADDISON        MOSUNNY   66  30  26 NW6       30.12S
MESQUITE       SUNNY     72  30  21 W9        30.11F
LANCASTER      SUNNY     72  27  18 N7        30.11F
6HR MIN TEMP:  37; 6HR MAX TEMP:  72;

$$

TXZ091>094-102>105-117-120-121-131>134-111900-
NORTH CENTRAL TEXAS

CITY           SKY/WX    TMP DP  RH WIND       PRES   REMARKS
SHRMAN/DENISON SUNNY     64  35  32 N9        30.12F
6HR MIN TEMP:  43; 6HR MAX TEMP:  64;

GAINESVILLE    SUNNY     64  34  32 N9        30.14F
BOWIE          SUNNY     64  32  30 NE6       30.13F
6HR MIN TEMP:  45; 6HR MAX TEMP:  64;

BRIDGEPORT     SUNNY     64  35  35 NW3       30.15S
6HR MIN TEMP:  45; 6HR MAX TEMP:  64;

DECATUR        SUNNY     66  32  28 NE7       30.13S
6HR MIN TEMP:  49; 6HR MAX TEMP:  66;

DENTON         SUNNY     64  35  34 N8        30.12S
6HR MIN TEMP:  39; 6HR MAX TEMP:  65;

MCKINNEY       SUNNY     67  35  30 N7        30.11S
6HR MIN TEMP:  38; 6HR MAX TEMP:  67;

GREENVILLE     SUNNY     70  30  23 W5        30.10F
ROCKWALL       SUNNY     68  33  27 W3        30.10F
6HR MIN TEMP:  44; 6HR MAX TEMP:  69;

TERRELL        SUNNY     69  35  28 W8        30.11F
6HR MIN TEMP:  41; 6HR MAX TEMP:  69;

WAXAHACHIE     SUNNY     71  36  27 W10       30.12F
6HR MIN TEMP:  47; 6HR MAX TEMP:  71;

CLEBURNE       SUNNY     70  32  24 W12       30.13F
GRANBURY       SUNNY     74  31  21 W5        30.12F
6HR MIN TEMP:  51; 6HR MAX TEMP:  74;

$$

TXZ083>090-098>101-113>116-127>130-139>142-154-155-111900-
WESTERN NORTH TEXAS

CITY           SKY/WX    TMP DP  RH WIND       PRES   REMARKS
WICHITA FALLS  MOSUNNY   62  35  36 NE9       30.15F
6HR MIN TEMP:  40; 6HR MAX TEMP:  63;

WF-KICKAPOO    SUNNY     64  33  31 N9        30.16F
6HR MIN TEMP:  45; 6HR MAX TEMP:  64;

VERNON         SUNNY     60  29  30 NE9       30.19S
6HR MIN TEMP:  32; 6HR MAX TEMP:  82;

ABILENE        SUNNY     67  30  25 W8        30.14F
6HR MIN TEMP:  53; 6HR MAX TEMP:  67;

ABILENE-DYESS  SUNNY     65  31  27 NW10      30.14S
6HR MIN TEMP:  48; 6HR MAX TEMP:  66;

BRECKENRIDGE   SUNNY     69  29  23 NW3       30.13S
6HR MIN TEMP:  49; 6HR MAX TEMP:  69;

GRAHAM         SUNNY     66  32  28 N8        30.12F
6HR MIN TEMP:  37; 6HR MAX TEMP:  66;

MINERAL WELLS  SUNNY     70  29  21 NW9       30.11S
6HR MIN TEMP:  39; 6HR MAX TEMP:  71;

STEPHENVILLE   SUNNY     75  26  16 W10       30.14S
6HR MIN TEMP:  53; 6HR MAX TEMP:  75;

COMANCHE       SUNNY     74  32  21 W10       30.12F
6HR MIN TEMP:  57; 6HR MAX TEMP:  75;

BROWNWOOD      SUNNY     73  28  19 SW9       30.13F
COLEMAN        SUNNY     74  27  17 W9        30.13F
6HR MIN TEMP:  44; 6HR MAX TEMP:  74;

$$

TXZ143>147-156>162-174-175-111900-
CENTRAL TEXAS

CITY           SKY/WX    TMP DP  RH WIND       PRES   REMARKS
WACO           SUNNY     76  35  22 SW8       30.11F
6HR MIN TEMP:  37; 6HR MAX TEMP:  76;

WACO-TSTC      SUNNY     73  36  25 CALM      30.12F
WACO-MCGREGOR  SUNNY     78  36  21 SW9       30.11F
6HR MIN TEMP:  42; 6HR MAX TEMP:  78;

HILLSBORO      SUNNY     69  35  27 CALM      30.12F
6HR MIN TEMP:  40; 6HR MAX TEMP:  69;

CORSICANA      SUNNY     70  35  27 VRB6      30.14F
6HR MIN TEMP:  50; 6HR MAX TEMP:  70;

MEXIA          SUNNY     71  36  27 SW8       30.13S
6HR MIN TEMP:  47; 6HR MAX TEMP:  71;

HEARNE         SUNNY     74  39  28 S16       30.16F
6HR MIN TEMP:  44; 6HR MAX TEMP:  74;

CAMERON        SUNNY     74  40  29 SW12G22   30.14F
6HR MIN TEMP:  53; 6HR MAX TEMP:  74;

TEMPLE         SUNNY     78  36  21 SW15      30.12F
6HR MIN TEMP:  43; 6HR MAX TEMP:  78;

KILLEEN        SUNNY     76  32  20 SW16G23   30.11F
6HR MIN TEMP:  56; 6HR MAX TEMP:  76;

KILLEEN-SKYLRK SUNNY     78  34  20 SW12      30.12F
6HR MIN TEMP:  50; 6HR MAX TEMP:  78;

FORT HOOD      SUNNY     78  31  18 SW14      30.10F
6HR MIN TEMP:  52; 6HR MAX TEMP:  78;

GATESVILLE     SUNNY     79  34  19 SW9       30.13F
HAMILTON       SUNNY     77  32  19 W13       30.13S
6HR MIN TEMP:  54; 6HR MAX TEMP:  77;

LAMPASAS       SUNNY     76  35  22 S8        30.12S
6HR MIN TEMP:  53; 6HR MAX TEMP:  76;

$$

TXZ095>097-106>112-122>126-135>138-148>153-164>167-111900-
EAST TEXAS

CITY           SKY/WX    TMP DP  RH WIND       PRES   REMARKS
PARIS          SUNNY     64  36  34 N7        30.10F
6HR MIN TEMP:  43; 6HR MAX TEMP:  64;

SULPHUR SPRNGS SUNNY     67  33  28 CALM      30.12S
6HR MIN TEMP:  47; 6HR MAX TEMP:  68;

MOUNT PLEASANT SUNNY     69  32  25 W9        30.11F
6HR MIN TEMP:  52; 6HR MAX TEMP:  69;

GILMER         SUNNY     71  34  26 W7        30.10F
MINEOLA        SUNNY     72  34  25 S8        30.10F
TYLER          SUNNY     72  34  24 W8        30.11F
6HR MIN TEMP:  54; 6HR MAX TEMP:  72;

LONGVIEW       SUNNY     74  34  23 W17       30.09F
6HR MIN TEMP:  51; 6HR MAX TEMP:  74;

MARSHALL       SUNNY     71  30  21 W10G17    30.11F
6HR MIN TEMP:  47; 6HR MAX TEMP:  72;

ATHENS         SUNNY     68  32  26 SW6       30.12F
PALESTINE      SUNNY     73  37  26 W13G18    30.15F
JACKSONVILLE   SUNNY     70  35  27 W8G17     30.16S
HENDERSON      SUNNY     72  35  25 W9        30.13F
6HR MIN TEMP:  51; 6HR MAX TEMP:  72;

CENTER         FAIR      74  35  24 W13G21    30.12F
6HR MIN TEMP:  51; 6HR MAX TEMP:  74;

NACOGDOCHES    SUNNY     72  39  30 W13G21    30.13F
6HR MIN TEMP:  46; 6HR MAX TEMP:  72;

LUFKIN         SUNNY     73  40  30 SW14G22   30.15F
6HR MIN TEMP:  37; 6HR MAX TEMP:  73;

$$

SUPPLEMENTAL OBSERVATIONS (CENTRAL)

CITY           SKY/WX    TMP DP  RH WIND       PRES   REMARKS
CADDO GRASSLND   N/A     66  36  32 N6          N/A
PAT MAYSE LAKE   N/A     63  34  34 NW6         N/A
GREENVILLE       N/A     68  36  30 NW3         N/A
CEDAR HILL       N/A     75  32  20 NW3         N/A
MCGREGOR         N/A     79  34  19 SW9G17      N/A
TEMPLE           N/A     81  36  19 S7G17       N/A
$$

SUPPLEMENTAL OBSERVATIONS (WEST)

CITY           SKY/WX    TMP DP  RH WIND       PRES   REMARKS
MILLERS CREEK    N/A     63  32  31 NE12C1F1C2F2C3F3C4F4C5F5C6F6C7F7C8F8C9!



USA.gov is the U.S. government's official web portal to all federal, state and local government web resources and services.